Preview of NWS' New Version of Forecast
This preview is not operational and should not be used for support decisions.

Regional Weather Roundup (RWR)

Issued by National Weather Service (NWS)

                            
000
ASUS42 KTBW 221518
RWRFL 
FLORIDA REGIONAL WEATHER ROUNDUP
NATIONAL WEATHER SERVICE TAMPA BAY RUSKIN FL
1100 AM EDT THU AUG 22 2019

NOTE: "FAIR" INDICATES FEW OR NO CLOUDS BELOW 12,000 FEET WITH NO
SIGNIFICANT WEATHER AND/OR OBSTRUCTIONS TO VISIBILITY.

FLZ001>010-012>015-112-114-115-221600-
PANHANDLE FLORIDA
  
CITY           SKY/WX    TMP DP  RH WIND       PRES   REMARKS
PENSACOLA      PTSUNNY   83  80  91 E7        30.06S HX  95           
PENSACOLA NAS  PTSUNNY   83  79  88 E8        30.05F                  
MILTON NAS     PTSUNNY   80  77  90 E6        30.07F                  
CRESTVIEW      PTSUNNY   85  76  74 CALM      30.09S                  
DUKE FIELD     FAIR      80  77  91 CALM      30.08R                  
VALPARAISO     TSTM      79  77  94 CALM      30.08R FOG              
MARY ESTHER    PTSUNNY   78  76  92 CALM      30.06S THUNDER          
TRI COUNTY     FAIR      85  75  72 S5        30.08                   
PANAMA CITY    FAIR      85  76  74 SE8       30.07R                  
TYNDALL AFB    MOSUNNY   85  76  75 SE9       30.06R                  
APALACHICOLA   FAIR      86  75  69 SE9       30.08F HX  95           

STATION/POSITION SKY/WX   TEMP    WIND        PRES    WAVE   SWELL
                          AIR SEA DIR/SP/G            HT/PER HT/PER
                          (F)     (DEG/KT/KT) (MB)    (FT/S) (FT/S)
30.1N   87.6W              78 85   60/  6/  6 1017.9F   2/ 4   2/ 4
29.2N   88.2W              85 85   40/  2/  4 1017.8R   1/ 6   2/ 6
28.8N   86.0W                 85   CALM  /  2 1018.2R   2/ 5   2/ 5
PANAMA CITY BEAC              87  130/  9/ 11 1018.6R
TOWER C                    83     110/  7/  8 1018.6F
28.5N   84.5W              84      90/  4/  4 1019.0R   1/ 7   2/ 7

$$
FLZ011-016>038-118-127-128-134-139-239-221600-
NORTH FLORIDA
  
CITY           SKY/WX    TMP DP  RH WIND       PRES   REMARKS
MARIANNA       FAIR      85  74  69 E3        30.07F                  
TALLAHASSEE    FAIR      88  74  63 E6        30.08F HX  96           
PERRY          PTSUNNY   86  79  79 CALM      30.10S HX  99           
LIVE OAK       MOSUNNY   84  75  74 CALM      30.09F                  
CROSS CITY     FAIR      85  77  75 CALM      30.09S HX  95           
LAKE CITY      FAIR      84  72  65 CALM      30.10F                  
GAINESVILLE    FAIR      85  73  67 E5        30.13S                  
WILLISTON      FAIR      85  75  71 S5        30.10S                  
MAYPORT NAS    FAIR      88  74  63 S6        30.10F HX  96           
JACKSONVILLE   FAIR      87  74  64 CALM      30.10F HX  95           
JAX NAS        FAIR      86  74  67 NE5       30.11F                  
JAX CECIL      PTSUNNY   93  73  52 CALM      30.10F HX 102           
FERNANDINA BEA FAIR      86  75  68 MISG      30.11S                  
ST AUGUSTINE   FAIR      86  75  69 W5        30.11F HX  95           
PALM COAST     MOSUNNY   88  73  62 VRB7      30.10F HX  96           

STATION/POSITION SKY/WX   TEMP    WIND        PRES    WAVE   SWELL
                          AIR SEA DIR/SP/G            HT/PER HT/PER
                          (F)     (DEG/KT/KT) (MB)    (FT/S) (FT/S)
SHELL POINT      NOT AVBL
KEATON BEACH               83     190/  8/  9 1018.9S
CEDAR KEY                  81     130/  6/  7 1019.2R
FERNANDINA                 90 85              1020.3F
30.7N   81.3W                 84                N/A     2/ 9
MAYPORT                    84 85  300/  2/  3 1020.0F
31.4N   80.9W              81 83  260/  6/  8 1019.4F   2/11   2/11
ST AUGUSTINE               83 81   80/  7/  7 1019.7F

$$
FLZ040-043>046-052-053-057-058-063-144-221600-
INTERIOR CENTRAL FLORIDA
  
CITY           SKY/WX    TMP DP  RH WIND       PRES   REMARKS
OCALA          FAIR      85  74  69 CALM      30.11S                  
LEESBURG       FAIR      86  73  65 S6        30.10F                  
SANFORD        FAIR      87  74  64 VRB3      30.09S HX  95           
ORLANDO EXEC   FAIR      87  73  62 CALM      30.09S                  
ORLANDO INTL   FAIR      87  73  62 CALM      30.09S                  
KISSIMMEE      PTSUNNY   86  74  67 CALM      30.10S                  
WINTER HAVEN   FAIR      88  73  61 CALM      30.10S HX  95           
LAKELAND       MOSUNNY   84  72  65 CALM      30.10S                  
BARTOW         PTSUNNY   88  75  66 CALM      30.08S HX  97           
SEBRING        FAIR      85  74  68 CALM      30.09R                  
OKEECHOBEE     PTSUNNY   86  73  66 NE3       30.07R                  

$$
FLZ041-047-054-059-064-141-147-221600-
EAST CENTRAL FLORIDA
  
CITY           SKY/WX    TMP DP  RH WIND       PRES   REMARKS
ORMOND BEACH   MOSUNNY   86  73  66 CALM      30.10S                  
DAYTONA BEACH  FAIR      87  73  62 VRB3      30.10S                  
DELAND         FAIR      86  73  66 N3        30.09F                  
NEW SMYRNA BEA MOSUNNY   88  75  66 NE7       30.11S HX  97           
JFK SPACE CTR  PTSUNNY   84  75  74 NE7       30.09R                  
TITUSVILLE     MOSUNNY   90  73  58 E5        30.10R HX  98           
CAPE CANAVERAL FAIR      87  77  71 CALM      30.08R HX  98           
PATRICK AFB    FAIR      86  78  77 E5        30.09R HX  99           
MELBOURNE      FAIR      88  75  65 NE8       30.09R HX  97           
VERO BEACH     FAIR      85  76  74 NE8       30.08R                  
FT PIERCE      FAIR      87  73  62 E8        30.07S                  
STUART         PTSUNNY   86  73  66 E12       30.08R                  

STATION/POSITION SKY/WX   TEMP    WIND        PRES    WAVE   SWELL
                          AIR SEA DIR/SP/G            HT/PER HT/PER
                          (F)     (DEG/KT/KT) (MB)    (FT/S) (FT/S)
28.5N   80.2W              84 83  110/  4/  4 1018.9R   2/ 8   2/ 8
28.9N   78.5W              84 86  110/  8/ 10 1019.7R   2/ 7   2/ 7
TRIDENT PIER               87 83  100/  4/  6 1020.5R
28.4N   80.5W                 83                N/A     2/ 4
27.5N   80.2W                 83                N/A     2/ 4

$$
FLZ050-056-061-142-242-148-248-149-249-151-251-155-255-
160-260-221600-
WEST CENTRAL FLORIDA
  
CITY           SKY/WX    TMP DP  RH WIND       PRES   REMARKS
CRYSTAL RIVER  FAIR      86  73  66 CALM      30.09S                  
INVERNESS      FAIR      86  75  70 CALM      30.10S HX  95           
BROOKSVILLE    FAIR      87  74  64 E3        30.09F HX  95           
CLEARWATER AIR FAIR      86  73  66 SE6       30.08R                  
ST PETE CLEARW FAIR      87  74  64 E10       30.07F HX  95           
TAMPA INTL     FAIR      87  74  64 SE5       30.08S HX  95           
PLANT CITY     FAIR      88  75  66 SE3       30.10F HX  97           
MACDILL AFB    FAIR      87  73  63 E6        30.08S                  
PETER O KNIGHT CLOUDY    88  77  70 CALM      30.08F HX 100           
ST PETERSBURG  FAIR      85  74  69 E7        30.06S                  
SARASOTA       FAIR      86  72  62 SE5       30.05S                  
VENICE         FAIR      90  73  58 NE6       30.07S HX  98           

STATION/POSITION SKY/WX   TEMP    WIND        PRES    WAVE   SWELL
                          AIR SEA DIR/SP/G            HT/PER HT/PER
                          (F)     (DEG/KT/KT) (MB)    (FT/S) (FT/S)
27.3N   84.2W                 86                N/A     3/ 7
CLEARWATER BEACH              87   90/  4/  5 1018.6S
MIDDLE TAMPA BAY           85     110/  5/  6 1018.8R
VENICE                     85 86   70/  4/  6 1018.0R

$$
FLZ066-069-070-075>078-162-262-165-265-221600-
SOUTHWEST FLORIDA AND KEYS
  
CITY           SKY/WX    TMP DP  RH WIND       PRES   REMARKS
PUNTA GORDA    FAIR      87  74  64 VRB6      30.08R HX  95           
FT MYERS       FAIR      85  73  67 SE5       30.05S                  
SOUTHWEST INTL FAIR      86  74  67 E7        30.06S                  
NAPLES         FAIR      88  75  65 NE8       30.05S HX  97           
MARCO ISLAND   FAIR     N/A N/A N/A NE9         N/A                   
IMMOKALEE      FAIR      86  75  70 NE7       30.04S HX  95           
MARATHON       FAIR      86  76  71 NE9       30.03S HX  96           
KEY WEST NAS   FAIR      89  74  60 NE8       30.03S HX  98           
KEY WEST INTL  FAIR      88  73  61 NE6       30.04R HX  95           

STATION/POSITION SKY/WX   TEMP    WIND        PRES    WAVE   SWELL
                          AIR SEA DIR/SP/G            HT/PER HT/PER
                          (F)     (DEG/KT/KT) (MB)    (FT/S) (FT/S)
NAPLES                     84 87              1017.7R
26.0N   85.6W              85 85  350/  2/  2 1018.0R   2/ 7   2/ 7
DRY TORTUGAS               85      50/  4/  6 1017.5R
SAND KEY                   84      30/  5     1016.0
SOMBRERO KEY               83      20/  8/ 11 1017.2
LONG KEY                   83                 1016.2

$$
FLZ067-068-071>074-168-172>174-221600-
SOUTHEAST FLORIDA 
  
CITY           SKY/WX    TMP DP  RH WIND       PRES   REMARKS
W PALM BEACH   PTSUNNY   85  74  69 E10       30.06R                  
BOCA RATON     MOSUNNY   88  75  66 E9        30.05S HX  97           
FT LAUDER-EXEC FAIR      81  74  79 E5        30.04S                  
FT LAUDERDALE  PTSUNNY   86  74  67 E9        30.03S                  
POMPANO BEACH  LGT RAIN  86  76  71 CALM      30.04  HX  96           
PEMBROKE PINES FAIR      85  75  72 SE9       30.05F                  
OPA LOCKA      FAIR      84  77  79 E6        30.05R                  
MIAMI          PTSUNNY   81  74  79 S3        30.04R                  
WEST KENDALL   PTSUNNY   86  77  74 NE10      30.04R HX  97           
HOMESTEAD      LGT RAIN  81  76  86 NE10      30.03R                  

STATION/POSITION SKY/WX   TEMP    WIND        PRES    WAVE   SWELL
                          AIR SEA DIR/SP/G            HT/PER HT/PER
                          (F)     (DEG/KT/KT) (MB)    (FT/S) (FT/S)
VIRGINIA KEY                  88   70/  6/  8 1016.9R
LAKE WORTH                 82 85  100/  7/  9 1018.8R
FOWEY ROCKS                82 86  100/  8/  9 1017.4R
SETTLEMENT POINT           84      90/  7/  9 1017.7R

$$